Weather History for Macomb, IL

Change the Weather History Date:

Thursday, August 15, 2013

  Actual Average (KBRL) Record (KBRL)
Temperature  
Mean Temperature 65 °F 75 °F  
Max Temperature 76 °F 85 °F 102 °F (1913)
Min Temperature 55 °F 66 °F 46 °F (2004)
Degree Days  
Heating Degree Days 0 0  
Month to date heating degree days 0  
Since 1 June heating degree days 14  
Since 1 July heating degree days 1  
Cooling Degree Days 0 10  
Month to date cooling degree days 164  
Year to date cooling degree days 893  
Since 1 June cooling degree days 790  
Growing Degree Days 15 (Base 50)    
Moisture  
Dew Point 55 °F    
Average Humidity 73    
Maximum Humidity 94    
Minimum Humidity 41    
Precipitation  
Precipitation 0.00 in 0.14 in 4.21 in (1952)
Month to date precipitation 1.98  
Year to date precipitation 24.96  
Sea Level Pressure  
Sea Level Pressure 30.18 in    
Wind  
Wind Speed 1 mph (SE)    
Max Wind Speed 7 mph    
Max Gust Speed -    
Visibility 10 miles    
Events      
T = Trace of Precipitation, MM = Missing Value Source: NWS Daily Summary

Daily Weather History Graph

Daily Weather History Graph

Search for Another Location

Airport:

Trip Planner

Search our weather history database for the weather conditions in past years. The results will help you decide how hot, cold, wet, or windy it might be!

Date:

Astronomy

Aug. 15, 2013 Rise Set
Actual Time 6:13 AM CDT 7:59 PM CDT
Civil Twilight 5:44 AM CDT 8:28 PM CDT
Nautical Twilight 5:08 AM CDT 9:04 PM CDT
Astronomical Twilight 4:30 AM CDT 9:42 PM CDT
Moon 3:17 PM CDT (8/15) 12:22 AM CDT (8/15)
Length of Visible Light 14h 44m
Length of Day
13h 46m
Waxing Gibbous, 64% of the Moon is Illuminated
Aug 15
Waxing Gibbous
Aug 20
Full
Aug 28
Last Quarter
Sep 5
New
Sep 12
First Quarter

Hourly Weather History & Observations

Time (CDT) Temp. Dew Point Humidity Pressure Visibility Wind Dir Wind Speed Gust Speed Precip Events Conditions
12:15 AM 55.9 °F 53.1 °F 90% 30.20 in 10.0 mi Calm Calm - N/A   Clear
12:35 AM 56.7 °F 54.0 °F 91% 30.20 in 10.0 mi Calm Calm - N/A   Clear
12:55 AM 57.2 °F 54.5 °F 91% 30.19 in 10.0 mi Calm Calm - N/A   Clear
1:15 AM 57.2 °F 54.5 °F 91% 30.19 in 10.0 mi Calm Calm - N/A   Clear
1:35 AM 57.0 °F 54.3 °F 91% 30.19 in 10.0 mi Calm Calm - N/A   Clear
1:55 AM 56.3 °F 53.8 °F 91% 30.19 in 10.0 mi Calm Calm - N/A   Clear
2:15 AM 55.4 °F 53.2 °F 92% 30.18 in 10.0 mi Calm Calm - N/A   Clear
2:35 AM 56.5 °F 54.5 °F 93% 30.18 in 10.0 mi Calm Calm - N/A   Clear
2:55 AM 56.7 °F 54.7 °F 93% 30.18 in 10.0 mi Calm Calm - N/A   Clear
3:15 AM 57.2 °F 54.5 °F 91% 30.18 in 10.0 mi Calm Calm - N/A   Clear
3:35 AM 57.0 °F 54.7 °F 92% 30.18 in 10.0 mi Calm Calm - N/A   Clear
3:55 AM 57.2 °F 54.9 °F 92% 30.19 in 10.0 mi Calm Calm - N/A   Clear
4:15 AM 56.7 °F 54.7 °F 93% 30.19 in 10.0 mi Calm Calm - N/A   Clear
4:35 AM 56.7 °F 54.5 °F 92% 30.19 in 10.0 mi Calm Calm - N/A   Clear
4:55 AM 56.5 °F 54.3 °F 92% 30.19 in 10.0 mi Calm Calm - N/A   Clear
5:15 AM 56.3 °F 54.5 °F 94% 30.19 in 10.0 mi Calm Calm - N/A   Clear
5:35 AM 56.7 °F 54.9 °F 94% 30.19 in 10.0 mi Calm Calm - N/A   Scattered Clouds
5:55 AM 56.7 °F 54.9 °F 94% 30.19 in 10.0 mi Calm Calm - N/A   Scattered Clouds
6:15 AM 56.3 °F 54.7 °F 94% 30.19 in 10.0 mi Calm Calm - N/A   Clear
6:35 AM 56.3 °F 54.5 °F 94% 30.19 in 10.0 mi Calm Calm - N/A   Clear
6:55 AM 56.1 °F 54.3 °F 94% 30.20 in 10.0 mi Calm Calm - N/A   Clear
7:15 AM 57.2 °F 55.6 °F 94% 30.20 in 10.0 mi Calm Calm - N/A   Clear
7:35 AM 58.6 °F 56.7 °F 93% 30.20 in 10.0 mi Calm Calm - N/A   Clear
7:55 AM 59.4 °F 57.2 °F 93% 30.21 in 10.0 mi Calm Calm - N/A   Clear
8:15 AM 60.6 °F 57.7 °F 90% 30.21 in 10.0 mi Calm Calm - N/A   Clear
8:35 AM 61.7 °F 58.1 °F 88% 30.21 in 10.0 mi Calm Calm - N/A   Clear
8:55 AM 62.6 °F 58.3 °F 86% 30.21 in 10.0 mi Calm Calm - N/A   Clear
9:15 AM 64.2 °F 58.5 °F 82% 30.21 in 10.0 mi Calm Calm - N/A   Scattered Clouds
9:35 AM 67.5 °F 57.4 °F 70% 30.21 in 10.0 mi SSW 3.5 mph - N/A   Clear
9:55 AM 68.7 °F 56.3 °F 64% 30.21 in 10.0 mi SSW 3.5 mph - N/A   Scattered Clouds
10:15 AM 69.3 °F 55.4 °F 61% 30.21 in 10.0 mi SSW 3.5 mph - N/A   Scattered Clouds
10:35 AM 70.0 °F 56.7 °F 63% 30.21 in 10.0 mi Calm Calm - N/A   Scattered Clouds
10:55 AM 72.1 °F 54.1 °F 53% 30.21 in 10.0 mi Calm Calm - N/A   Clear
11:15 AM 72.3 °F 54.9 °F 54% 30.21 in 10.0 mi Calm Calm - N/A   Scattered Clouds
11:35 AM 72.7 °F 52.9 °F 50% 30.20 in 10.0 mi Calm Calm - N/A   Scattered Clouds
11:55 AM 73.2 °F 54.7 °F 52% 30.20 in 10.0 mi Calm Calm - N/A   Scattered Clouds
12:15 PM 74.3 °F 55.2 °F 51% 30.20 in 10.0 mi Calm Calm - N/A   Overcast
12:35 PM 74.3 °F 53.2 °F 48% 30.19 in 10.0 mi SSE 4.6 mph - N/A   Mostly Cloudy
12:55 PM 74.3 °F 53.6 °F 48% 30.19 in 10.0 mi ESE 5.8 mph - N/A   Mostly Cloudy
1:15 PM 73.6 °F 53.8 °F 50% 30.18 in 10.0 mi Calm Calm - N/A   Overcast
1:35 PM 73.4 °F 52.3 °F 48% 30.18 in 10.0 mi SE 4.6 mph - N/A   Mostly Cloudy
1:38 PM 73.4 °F 51.8 °F 47% 30.18 in 10.0 mi SSE 4.6 mph - N/A   Mostly Cloudy
1:55 PM 73.0 °F 51.4 °F 47% 30.18 in 10.0 mi SSE 4.6 mph - N/A   Mostly Cloudy
1:58 PM 73.4 °F 51.8 °F 47% 30.18 in 10.0 mi SSE 4.6 mph - N/A   Mostly Cloudy
2:15 PM 74.7 °F 52.9 °F 46% 30.17 in 10.0 mi Calm Calm - N/A   Mostly Cloudy
2:35 PM 75.2 °F 51.8 °F 44% 30.17 in 10.0 mi SSE 4.6 mph - N/A   Scattered Clouds
2:55 PM 75.2 °F 52.9 °F 46% 30.17 in 10.0 mi ESE 6.9 mph - N/A   Mostly Cloudy
3:15 PM 75.6 °F 50.5 °F 41% 30.16 in 10.0 mi Calm Calm - N/A   Scattered Clouds
3:35 PM 75.9 °F 52.3 °F 44% 30.15 in 10.0 mi SSE 5.8 mph - N/A   Clear
3:55 PM 75.7 °F 52.0 °F 43% 30.14 in 10.0 mi South 3.5 mph - N/A   Scattered Clouds
4:15 PM 75.6 °F 50.7 °F 42% 30.14 in 10.0 mi East 5.8 mph - N/A   Scattered Clouds
4:35 PM 75.0 °F 52.2 °F 45% 30.13 in 10.0 mi ESE 4.6 mph - N/A   Scattered Clouds
4:55 PM 74.3 °F 49.8 °F 42% 30.13 in 10.0 mi ESE 3.5 mph - N/A   Clear
5:15 PM 74.3 °F 52.5 °F 46% 30.14 in 10.0 mi ESE 3.5 mph - N/A   Clear
5:35 PM 73.8 °F 52.3 °F 47% 30.13 in 10.0 mi ESE 3.5 mph - N/A   Clear
5:55 PM 73.4 °F 54.7 °F 52% 30.13 in 10.0 mi Calm Calm - N/A   Clear
6:15 PM 72.7 °F 54.9 °F 53% 30.13 in 10.0 mi Calm Calm - N/A   Clear
6:35 PM 72.0 °F 56.8 °F 59% 30.13 in 10.0 mi Calm Calm - N/A   Clear
6:55 PM 71.6 °F 57.4 °F 61% 30.13 in 10.0 mi Calm Calm - N/A   Scattered Clouds
7:15 PM 70.3 °F 59.2 °F 68% 30.13 in 10.0 mi Calm Calm - N/A   Mostly Cloudy
7:35 PM 69.8 °F 60.3 °F 72% 30.13 in 10.0 mi Calm Calm - N/A   Overcast
7:55 PM 68.9 °F 61.9 °F 78% 30.13 in 10.0 mi NNE 3.5 mph - N/A   Mostly Cloudy
8:15 PM 67.8 °F 60.1 °F 76% 30.13 in 10.0 mi Calm Calm - N/A   Scattered Clouds
8:35 PM 66.6 °F 60.1 °F 80% 30.13 in 10.0 mi Calm Calm - N/A   Scattered Clouds
8:55 PM 65.3 °F 60.4 °F 84% 30.14 in 10.0 mi Calm Calm - N/A   Mostly Cloudy
9:15 PM 64.8 °F 60.1 °F 85% 30.15 in 10.0 mi Calm Calm - N/A   Overcast
9:35 PM 63.9 °F 60.1 °F 87% 30.16 in 10.0 mi Calm Calm - N/A   Overcast
9:55 PM 63.3 °F 59.5 °F 87% 30.17 in 10.0 mi Calm Calm - N/A   Mostly Cloudy
10:15 PM 62.1 °F 59.0 °F 90% 30.17 in 10.0 mi Calm Calm - N/A   Scattered Clouds
10:35 PM 63.7 °F 59.9 °F 87% 30.18 in 10.0 mi Calm Calm - N/A   Overcast
10:55 PM 62.8 °F 59.4 °F 89% 30.17 in 10.0 mi Calm Calm - N/A   Overcast
11:15 PM 62.6 °F 59.2 °F 89% 30.17 in 10.0 mi Calm Calm - N/A   Scattered Clouds
11:35 PM 61.2 °F 57.7 °F 88% 30.17 in 10.0 mi Calm Calm - N/A   Clear
11:55 PM 60.1 °F 57.2 °F 90% 30.18 in 10.0 mi Calm Calm - N/A   Clear